Location: Ithaca
(42.4410°N, 76.4970°W)
Time: 00:35:34
(UTC-04:00)

ISS - Visible Passes

Search period start: 01 November 2014 00:00
Search period end: 10 November 2014 23:00
Orbit: 412 x 417 km, 51.6° (Epoch: 01 November)

Date Brightness Start Highest point End Pass type
(mag) Time Alt. Az. Time Alt. Az. Time Alt. Az.
09 Nov -0.9 05:30:45 10° SSW 05:33:29 24° SE 05:36:15 10° E visible
10 Nov -0.3 04:42:21 10° SSE 04:44:10 14° SE 04:46:00 10° E visible
10 Nov -3.3 06:17:09 10° WSW 06:20:27 73° NNW 06:23:46 10° NE visible
